Regional Weather Roundup
Issued by NWS

Home | Current Version | Previous Version | Text Only | Print | Product List | Glossary Off
Versions: 1 2 3 4 5 6 7 8 9 10 11 12 13 14 15 16 17 18 19 20 21 22 23 24 25 26 27 28 29 30 31 32 33 34 35 36 37 38 39 40 41 42 43 44 45 46 47 48 49 50

100
ASUS43 KIND 220609
RWRIN

WEATHER ROUNDUP FOR INDIANA
NATIONAL WEATHER SERVICE INDIANAPOLIS IN
100 AM EST SUN JAN 22 2017

NOTE: "FAIR" INDICATES FEW OR NO CLOUDS BELOW 12,000 FEET WITH NO
SIGNIFICANT WEATHER AND/OR OBSTRUCTIONS TO VISIBILITY.

* - STATION DOES NOT REPORT WEATHER SUCH AS PRECIPITATION OR FOG.

+ - STATION NOT QUALITY CONTROLLED BY THE NATIONAL WEATHER SERVICE.
    USE DATA WITH CAUTION...ESPECIALLY DEWPOINT AND RELATIVE
    HUMIDITY OBSERVATIONS.

INZ001>003-010>013-019-020-220700-
NORTHWEST INDIANA

CITY           SKY/WX    TMP DP  RH WIND       PRES   REMARKS
GARY /AIRPORT/ FOG       35  35 100 CALM      29.59F VSB 1/2
KNOX *+          N/A     37  32  81 CALM      29.59S VSB 1/4
LA PORTE +     FOG       37  37 100 CALM      29.60S VSB 1/4
6HR MIN TEMP:  37; 6HR MAX TEMP:  51;

MICHIGAN CITY+ MOCLDY    39  39 100 CALM      29.60S VSB 3/4
MONTICELLO +   CLOUDY    45  44  95 CALM      29.60R FOG
6HR MIN TEMP:  42; 6HR MAX TEMP:  56;

RENSSELAER +   FOG       41  41 100 CALM      29.60S VSB<1/4
VALPARAISO     FOG       40  39  97 CALM      29.60S VSB 1/4
6HR MIN TEMP:  40; 6HR MAX TEMP:  51;


$$

LMZ046-743>745-220700-
SOUTHERN LAKE MICHIGAN

STATION/POSITION TIME  TEMP    WIND        PRES    WAVE
                       AIR SEA DIR/SP/G            HT
                 (UTC) (F)     (DEG/KT/KT) (MB)    (FT)
BURNS HARBOR     0540   49     200/  3/  3 1002.7F
MICHIGAN CITY    0540   49     170/  3/  3   N/A

$$

INZ004-005-014>016-021>024-220700-
NORTH CENTRAL INDIANA

CITY           SKY/WX    TMP DP  RH WIND       PRES   REMARKS
GOSHEN         FOG       39  37  92 CALM      29.60S VSB 1/4
6HR MIN TEMP:  39; 6HR MAX TEMP:  53;

LOGANSPORT +   LGT RAIN  46  46 100 SW7       29.60S
PERU/GRISSOM   TSTM      54  52  94 SW7       29.59R
6HR MIN TEMP:  49; 6HR MAX TEMP:  54; 6HR PCP:  0.20;

ROCHESTER +    CLOUDY    41  41 100 CALM      29.60S VSB 1/4
SOUTH BEND     FOG       35  35 100 CALM      29.60S VSB 1/4
6HR MIN TEMP:  35; 6HR MAX TEMP:  52;

WARSAW +       FOG       43  43 100 CALM      29.60S VSB 1/4

$$

INZ006>009-017-018-025>027-220700-
NORTHEAST INDIANA

CITY           SKY/WX    TMP DP  RH WIND       PRES   REMARKS
ANGOLA *+      CLOUDY    43  37  81 CALM      29.59F VSB 0
AUBURN +       FOG       45  43  93 CALM      29.61F VSB 1/4
FORT WAYNE     TSTM      54  49  83 SW24      29.63R
6HR MIN TEMP:  50; 6HR MAX TEMP:  54; 6HR PCP: TRACE;

HUNTINGTON +   TSTM      52  51  95 S7        29.62R
6HR MIN TEMP:  49; 6HR MAX TEMP:  55; 6HR PCP:  0.08;

KENDALLVILLE + FOG       49  49 100 S5        29.60F VSB 3/4

$$

INZ028-029-035-036-043>045-051>053-220700-
WEST CENTRAL INDIANA

CITY           SKY/WX    TMP DP  RH WIND       PRES   REMARKS
CRAWFORDSVL +  CLOUDY    49  49 100 SE3       29.59F
6HR MIN TEMP:  48; 6HR MAX TEMP:  53;

GREENCASTLE +  CLOUDY    46  46 100 CALM      29.60F
LAFAYETTE      RAIN      49  49 100 NW5       29.60R FOG
6HR MIN TEMP:  45; 6HR MAX TEMP:  55; 6HR PCP:  0.31;

TERRE HAUTE    CLEAR     46  44  93 CALM      29.58F
6HR MIN TEMP:  44; 6HR MAX TEMP:  57;


$$

INZ030>032-037>040-046>048-054>057-064-065-220700-
CENTRAL INDIANA

CITY           SKY/WX    TMP DP  RH WIND       PRES   REMARKS
CP ATTERBURY + PTCLDY    50  48  93 CALM      29.61F
FISHERS *+     CLOUDY    52  52 100 S3        29.60
FRANKFORT +    CLOUDY    55  51  87 NW16G23   29.63R
6HR MIN TEMP:  51; 6HR MAX TEMP:  57;

GREENWOOD *+   CLOUDY    54  51  92 SE6       29.61F
6HR MIN TEMP:  53; 6HR MAX TEMP:  56;

INDIANAPOLIS   MOCLDY    52  48  86 SE7       29.60F
6HR MIN TEMP:  52; 6HR MAX TEMP:  57;

-EAGLE CREEK   PTCLDY    53  48  83 CALM      29.59F
6HR MIN TEMP:  52; 6HR MAX TEMP:  60;

KOKOMO +       CLOUDY    50  49  96 N7        29.61F THUNDER
6HR MIN TEMP:  50; 6HR MAX TEMP:  56; 6HR PCP:  0.07;

MARION +       CLOUDY    54  50  87 CALM      29.62S
MT COMFORT *+  PTCLDY    52  50  93 S6        29.61F
SHELBYVILLE    PTCLDY    52  48  86 SE8       29.60F
6HR MIN TEMP:  52; 6HR MAX TEMP:  57;

ZIONSVILLE +   CLOUDY    51  48  89 S5        29.60F
6HR MIN TEMP:  49; 6HR MAX TEMP:  55;


$$

INZ033-034-041-042-049-050-058-059-220700-
EAST CENTRAL INDIANA

CITY           SKY/WX    TMP DP  RH WIND       PRES   REMARKS
MUNCIE         CLOUDY    57  51  80 S8        29.60F
6HR MIN TEMP:  55; 6HR MAX TEMP:  58;


$$

INZ060-061-067>069-081>083-085>088-220700-
SOUTHWEST INDIANA

CITY           SKY/WX    TMP DP  RH WIND       PRES   REMARKS
EVANSVILLE     CLOUDY    52  47  83 N3        29.57F
6HR MIN TEMP:  51; 6HR MAX TEMP:  61;

HUNTINGBURG *+ MOCLDY    54  48  82 E5        29.59F
6HR MIN TEMP:  54; 6HR MAX TEMP:  61;

WASHINGTON +   CLEAR     48  47  94 SE5       29.58F
6HR MIN TEMP:  47; 6HR MAX TEMP:  58;


$$

INZ062-063-066-070>080-084-089>092-220700-
SOUTH CENTRAL AND SOUTHEAST INDIANA

CITY           SKY/WX    TMP DP  RH WIND       PRES   REMARKS
BLOOMINGTON    CLEAR     54  47  77 SE6       29.60F
6HR MIN TEMP:  53; 6HR MAX TEMP:  59;

MADISON *+     CLOUDY    52  46  82 E3        29.64F
NORTH VERNON + CLOUDY   N/A N/A N/A SE5       29.63F
SEYMOUR +      PTCLDY    54  50  87 SE5       29.61F

$$





USA.gov is the U.S. government's official web portal to all federal, state and local government web resources and services.